Year,Month,Day,Hour,Minute,Value (Times are PST for temperature in C)
2006,06,25,00,00,14.60
2006,06,25,00,01,14.60
2006,06,25,00,02,14.60
2006,06,25,00,03,14.60
2006,06,25,00,04,14.60
2006,06,25,00,05,14.60
2006,06,25,00,06,14.50
2006,06,25,00,07,14.50
2006,06,25,00,08,14.50
2006,06,25,00,09,14.50
2006,06,25,00,10,14.50
2006,06,25,00,11,14.50
2006,06,25,00,12,14.50
2006,06,25,00,13,14.50
2006,06,25,00,14,14.50
2006,06,25,00,15,14.50
2006,06,25,00,16,14.50
2006,06,25,00,17,14.50
2006,06,25,00,18,14.50
2006,06,25,00,19,14.50
2006,06,25,00,20,14.40
2006,06,25,00,21,14.30
2006,06,25,00,22,14.30
2006,06,25,00,23,14.20
2006,06,25,00,24,14.20
2006,06,25,00,25,14.10
2006,06,25,00,26,14.10
2006,06,25,00,27,14.10
2006,06,25,00,28,14.00
2006,06,25,00,29,14.00
2006,06,25,00,30,14.00
2006,06,25,00,31,13.90
2006,06,25,00,32,13.90
2006,06,25,00,33,13.90
2006,06,25,00,34,13.90
2006,06,25,00,35,13.90
2006,06,25,00,36,13.80
2006,06,25,00,37,13.80
2006,06,25,00,38,13.80
2006,06,25,00,39,13.80
2006,06,25,00,40,13.80
2006,06,25,00,41,13.80
2006,06,25,00,42,13.70
2006,06,25,00,43,13.70
2006,06,25,00,44,13.70
2006,06,25,00,45,13.70
2006,06,25,00,46,13.70
2006,06,25,00,47,13.70
2006,06,25,00,48,13.70
2006,06,25,00,49,13.60
2006,06,25,00,50,13.60
2006,06,25,00,51,13.60
2006,06,25,00,52,13.60
2006,06,25,00,53,13.60
2006,06,25,00,54,13.60
2006,06,25,00,55,13.60
2006,06,25,00,56,13.50
2006,06,25,00,57,13.50
2006,06,25,00,58,13.50
2006,06,25,00,59,13.50
2006,06,25,01,00,13.50
2006,06,25,01,01,13.50
2006,06,25,01,02,13.50
2006,06,25,01,03,13.50
2006,06,25,01,04,13.50
2006,06,25,01,05,13.50
2006,06,25,01,06,13.50
2006,06,25,01,07,13.50
2006,06,25,01,08,13.50
2006,06,25,01,09,13.50
2006,06,25,01,10,13.50
2006,06,25,01,11,13.40
2006,06,25,01,12,13.40
2006,06,25,01,13,13.40
2006,06,25,01,14,13.40
2006,06,25,01,15,13.40
2006,06,25,01,16,13.30
2006,06,25,01,17,13.30
2006,06,25,01,18,13.30
2006,06,25,01,19,13.30
2006,06,25,01,20,13.30
2006,06,25,01,21,13.30
2006,06,25,01,22,13.30
2006,06,25,01,23,13.30
2006,06,25,01,24,13.30
2006,06,25,01,25,13.30
2006,06,25,01,26,13.30
2006,06,25,01,27,13.30
2006,06,25,01,28,13.30
2006,06,25,01,29,13.30
2006,06,25,01,30,13.30
2006,06,25,01,31,13.30
2006,06,25,01,32,13.30
2006,06,25,01,33,13.30
2006,06,25,01,34,13.20
2006,06,25,01,35,13.20
2006,06,25,01,36,13.20
2006,06,25,01,37,13.20
2006,06,25,01,38,13.10
2006,06,25,01,39,13.10
2006,06,25,01,40,13.10
2006,06,25,01,41,13.10
2006,06,25,01,42,13.00
2006,06,25,01,43,13.00
2006,06,25,01,44,13.00
2006,06,25,01,45,12.90
2006,06,25,01,46,12.90
2006,06,25,01,47,12.90
2006,06,25,01,48,12.90
2006,06,25,01,49,12.90
2006,06,25,01,50,12.90
2006,06,25,01,51,12.80
2006,06,25,01,52,12.80
2006,06,25,01,53,12.80
2006,06,25,01,54,12.80
2006,06,25,01,55,12.80
2006,06,25,01,56,12.80
2006,06,25,01,57,12.80
2006,06,25,01,58,12.80
2006,06,25,01,59,12.80
2006,06,25,02,00,12.80
2006,06,25,02,01,12.80
2006,06,25,02,02,12.80
2006,06,25,02,03,12.80
2006,06,25,02,04,12.80
2006,06,25,02,05,12.80
2006,06,25,02,06,12.80
2006,06,25,02,07,12.80
2006,06,25,02,08,12.80
2006,06,25,02,09,12.80
2006,06,25,02,10,12.80
2006,06,25,02,11,12.80
2006,06,25,02,12,12.70
2006,06,25,02,13,12.80
2006,06,25,02,14,12.80
2006,06,25,02,15,12.80
2006,06,25,02,16,12.80
2006,06,25,02,17,12.80
2006,06,25,02,18,12.80
2006,06,25,02,19,12.80
2006,06,25,02,20,12.80
2006,06,25,02,21,12.80
2006,06,25,02,22,12.80
2006,06,25,02,23,12.80
2006,06,25,02,24,12.80
2006,06,25,02,25,12.80
2006,06,25,02,26,12.80
2006,06,25,02,27,12.80
2006,06,25,02,28,12.70
2006,06,25,02,29,12.70
2006,06,25,02,30,12.70
2006,06,25,02,31,12.70
2006,06,25,02,32,12.70
2006,06,25,02,33,12.70
2006,06,25,02,34,12.70
2006,06,25,02,35,12.70
2006,06,25,02,36,12.70
2006,06,25,02,37,12.70
2006,06,25,02,38,12.60
2006,06,25,02,39,12.60
2006,06,25,02,40,12.60
2006,06,25,02,41,12.60
2006,06,25,02,42,12.60
2006,06,25,02,43,12.50
2006,06,25,02,44,12.50
2006,06,25,02,45,12.50
2006,06,25,02,46,12.50
2006,06,25,02,47,12.40
2006,06,25,02,48,12.40
2006,06,25,02,49,12.40
2006,06,25,02,50,12.30
2006,06,25,02,51,12.30
2006,06,25,02,52,12.30
2006,06,25,02,53,12.30
2006,06,25,02,54,12.30
2006,06,25,02,55,12.30
2006,06,25,02,56,12.30
2006,06,25,02,57,12.30
2006,06,25,02,58,12.30
2006,06,25,02,59,12.30
2006,06,25,03,00,12.30
2006,06,25,03,01,12.30
2006,06,25,03,02,12.20
2006,06,25,03,03,12.20
2006,06,25,03,04,12.30
2006,06,25,03,05,12.30
2006,06,25,03,06,12.30
2006,06,25,03,07,12.30
2006,06,25,03,08,12.30
2006,06,25,03,09,12.30
2006,06,25,03,10,12.30
2006,06,25,03,11,12.40
2006,06,25,03,12,12.40
2006,06,25,03,13,12.40
2006,06,25,03,14,12.40
2006,06,25,03,15,12.50
2006,06,25,03,16,12.50
2006,06,25,03,17,12.50
2006,06,25,03,18,12.50
2006,06,25,03,19,12.50
2006,06,25,03,20,12.50
2006,06,25,03,21,12.40
2006,06,25,03,22,12.40
2006,06,25,03,23,12.40
2006,06,25,03,24,12.40
2006,06,25,03,25,12.30
2006,06,25,03,26,12.30
2006,06,25,03,27,12.30
2006,06,25,03,28,12.30
2006,06,25,03,29,12.30
2006,06,25,03,30,12.30
2006,06,25,03,31,12.30
2006,06,25,03,32,12.20
2006,06,25,03,33,12.20
2006,06,25,03,34,12.20
2006,06,25,03,35,12.10
2006,06,25,03,36,12.10
2006,06,25,03,37,12.10
2006,06,25,03,38,12.00
2006,06,25,03,39,12.00
2006,06,25,03,40,12.00
2006,06,25,03,41,12.00
2006,06,25,03,42,11.90
2006,06,25,03,43,11.90
2006,06,25,03,44,11.90
2006,06,25,03,45,11.90
2006,06,25,03,46,11.80
2006,06,25,03,47,11.80
2006,06,25,03,48,11.80
2006,06,25,03,49,11.80
2006,06,25,03,50,11.80
2006,06,25,03,51,11.80
2006,06,25,03,52,11.80
2006,06,25,03,53,11.90
2006,06,25,03,54,11.90
2006,06,25,03,55,11.90
2006,06,25,03,56,11.90
2006,06,25,03,57,11.90
2006,06,25,03,58,11.90
2006,06,25,03,59,11.90
2006,06,25,04,00,11.80
2006,06,25,04,01,11.80
2006,06,25,04,02,11.80
2006,06,25,04,03,11.80
2006,06,25,04,04,11.80
2006,06,25,04,05,11.80
2006,06,25,04,06,11.80
2006,06,25,04,07,11.80
2006,06,25,04,08,11.80
2006,06,25,04,09,11.80
2006,06,25,04,10,11.80
2006,06,25,04,11,11.80
2006,06,25,04,12,11.80
2006,06,25,04,13,11.80
2006,06,25,04,14,11.80
2006,06,25,04,15,11.80
2006,06,25,04,16,11.80
2006,06,25,04,17,11.80
2006,06,25,04,18,11.80
2006,06,25,04,19,11.80
2006,06,25,04,20,11.80
2006,06,25,04,21,11.80
2006,06,25,04,22,11.80
2006,06,25,04,23,11.80
2006,06,25,04,24,11.80
2006,06,25,04,25,11.80
2006,06,25,04,26,11.80
2006,06,25,04,27,11.70
2006,06,25,04,28,11.70
2006,06,25,04,29,11.70
2006,06,25,04,30,11.60
2006,06,25,04,31,11.60
2006,06,25,04,32,11.60
2006,06,25,04,33,11.60
2006,06,25,04,34,11.60
2006,06,25,04,35,11.60
2006,06,25,04,36,11.60
2006,06,25,04,37,11.60
2006,06,25,04,38,11.60
2006,06,25,04,39,11.60
2006,06,25,04,40,11.60
2006,06,25,04,41,11.60
2006,06,25,04,42,11.60
2006,06,25,04,43,11.60
2006,06,25,04,44,11.60
2006,06,25,04,45,11.60
2006,06,25,04,46,11.70
2006,06,25,04,47,11.70
2006,06,25,04,48,11.80
2006,06,25,04,49,11.80
2006,06,25,04,50,11.80
2006,06,25,04,51,11.80
2006,06,25,04,52,11.80
2006,06,25,04,53,11.80
2006,06,25,04,54,11.80
2006,06,25,04,55,11.80
2006,06,25,04,56,11.80
2006,06,25,04,57,11.90
2006,06,25,04,58,11.90
2006,06,25,04,59,11.90
2006,06,25,05,00,11.90
2006,06,25,05,01,11.90
2006,06,25,05,02,11.90
2006,06,25,05,03,11.90
2006,06,25,05,04,11.90
2006,06,25,05,05,11.90
2006,06,25,05,06,11.90
2006,06,25,05,07,11.90
2006,06,25,05,08,11.90
2006,06,25,05,09,11.80
2006,06,25,05,10,11.80
2006,06,25,05,11,11.80
2006,06,25,05,12,11.80
2006,06,25,05,13,11.80
2006,06,25,05,14,11.80
2006,06,25,05,15,11.80
2006,06,25,05,16,11.80
2006,06,25,05,17,11.80
2006,06,25,05,18,11.80
2006,06,25,05,19,11.70
2006,06,25,05,20,11.70
2006,06,25,05,21,11.70
2006,06,25,05,22,11.70
2006,06,25,05,23,11.70
2006,06,25,05,24,11.70
2006,06,25,05,25,11.70
2006,06,25,05,26,11.70
2006,06,25,05,27,11.70
2006,06,25,05,28,11.70
2006,06,25,05,29,11.70
2006,06,25,05,30,11.70
2006,06,25,05,31,11.70
2006,06,25,05,32,11.70
2006,06,25,05,33,11.70
2006,06,25,05,34,11.70
2006,06,25,05,35,11.70
2006,06,25,05,36,11.60
2006,06,25,05,37,11.60
2006,06,25,05,38,11.60
2006,06,25,05,39,11.60
2006,06,25,05,40,11.60
2006,06,25,05,41,11.60
2006,06,25,05,42,11.60
2006,06,25,05,43,11.60
2006,06,25,05,44,11.60
2006,06,25,05,45,11.60
2006,06,25,05,46,11.70
2006,06,25,05,47,11.70
2006,06,25,05,48,11.70
2006,06,25,05,49,11.70
2006,06,25,05,50,11.70
2006,06,25,05,51,11.70
2006,06,25,05,52,11.80
2006,06,25,05,53,11.80
2006,06,25,05,54,11.80
2006,06,25,05,55,11.80
2006,06,25,05,56,11.80
2006,06,25,05,57,11.80
2006,06,25,05,58,11.80
2006,06,25,05,59,11.80
2006,06,25,06,00,11.90
2006,06,25,06,01,11.90
2006,06,25,06,02,11.90
2006,06,25,06,03,11.90
2006,06,25,06,04,11.90
2006,06,25,06,05,12.00
2006,06,25,06,06,12.00
2006,06,25,06,07,12.00
2006,06,25,06,08,12.00
2006,06,25,06,09,12.10
2006,06,25,06,10,12.10
2006,06,25,06,11,12.10
2006,06,25,06,12,12.20
2006,06,25,06,13,12.20
2006,06,25,06,14,12.20
2006,06,25,06,15,12.20
2006,06,25,06,16,12.20
2006,06,25,06,17,12.30
2006,06,25,06,18,12.30
2006,06,25,06,19,12.30
2006,06,25,06,20,12.30
2006,06,25,06,21,12.40
2006,06,25,06,22,12.50
2006,06,25,06,23,12.50
2006,06,25,06,24,12.60
2006,06,25,06,25,12.70
2006,06,25,06,26,12.80
2006,06,25,06,27,12.90
2006,06,25,06,28,13.00
2006,06,25,06,29,13.10
2006,06,25,06,30,13.10
2006,06,25,06,31,13.20
2006,06,25,06,32,13.20
2006,06,25,06,33,13.30
2006,06,25,06,34,13.30
2006,06,25,06,35,13.40
2006,06,25,06,36,13.50
2006,06,25,06,37,13.50
2006,06,25,06,38,13.60
2006,06,25,06,39,13.70
2006,06,25,06,40,13.70
2006,06,25,06,41,13.80
2006,06,25,06,42,13.80
2006,06,25,06,43,13.90
2006,06,25,06,44,13.90
2006,06,25,06,45,14.00
2006,06,25,06,46,14.00
2006,06,25,06,47,14.00
2006,06,25,06,48,14.10
2006,06,25,06,49,14.20
2006,06,25,06,50,14.20
2006,06,25,06,51,14.20
2006,06,25,06,52,14.30
2006,06,25,06,53,14.40
2006,06,25,06,54,14.40
2006,06,25,06,55,14.50
2006,06,25,06,56,14.60
2006,06,25,06,57,14.70
2006,06,25,06,58,14.80
2006,06,25,06,59,14.90
2006,06,25,07,00,15.00
2006,06,25,07,01,15.10
2006,06,25,07,02,15.20
2006,06,25,07,03,15.30
2006,06,25,07,04,15.60
2006,06,25,07,05,15.80
2006,06,25,07,06,15.90
2006,06,25,07,07,16.10
2006,06,25,07,08,16.20
2006,06,25,07,09,16.30
2006,06,25,07,10,16.40
2006,06,25,07,11,16.50
2006,06,25,07,12,16.60
2006,06,25,07,13,16.70
2006,06,25,07,14,16.70
2006,06,25,07,15,16.80
2006,06,25,07,16,16.90
2006,06,25,07,17,17.00
2006,06,25,07,18,17.10
2006,06,25,07,19,17.30
2006,06,25,07,20,17.30
2006,06,25,07,21,17.40
2006,06,25,07,22,17.50
2006,06,25,07,23,17.60
2006,06,25,07,24,17.70
2006,06,25,07,25,17.80
2006,06,25,07,26,17.90
2006,06,25,07,27,18.00
2006,06,25,07,28,18.10
2006,06,25,07,29,18.20
2006,06,25,07,30,18.20
2006,06,25,07,31,18.20
2006,06,25,07,32,18.10
2006,06,25,07,33,18.10
2006,06,25,07,34,18.10
2006,06,25,07,35,18.20
2006,06,25,07,36,18.20
2006,06,25,07,37,18.30
2006,06,25,07,38,18.30
2006,06,25,07,39,18.40
2006,06,25,07,40,18.50
2006,06,25,07,41,18.60
2006,06,25,07,42,18.60
2006,06,25,07,43,18.60
2006,06,25,07,44,18.70
2006,06,25,07,45,18.70
2006,06,25,07,46,18.70
2006,06,25,07,47,18.70
2006,06,25,07,48,18.70
2006,06,25,07,49,18.80
2006,06,25,07,50,18.80
2006,06,25,07,51,18.80
2006,06,25,07,52,18.80
2006,06,25,07,53,18.90
2006,06,25,07,54,18.90
2006,06,25,07,55,18.90
2006,06,25,07,56,18.90
2006,06,25,07,57,19.00
2006,06,25,07,58,19.10
2006,06,25,07,59,19.10
2006,06,25,08,00,19.10
2006,06,25,08,01,19.20
2006,06,25,08,02,19.30
2006,06,25,08,03,19.40
2006,06,25,08,04,19.40
2006,06,25,08,05,19.50
2006,06,25,08,06,19.60
2006,06,25,08,07,19.60
2006,06,25,08,08,19.70
2006,06,25,08,09,19.90
2006,06,25,08,10,20.00
2006,06,25,08,11,20.20
2006,06,25,08,12,20.30
2006,06,25,08,13,20.40
2006,06,25,08,14,20.50
2006,06,25,08,15,20.60
2006,06,25,08,16,20.80
2006,06,25,08,17,20.90
2006,06,25,08,18,21.10
2006,06,25,08,19,21.20
2006,06,25,08,20,21.30
2006,06,25,08,21,21.40
2006,06,25,08,22,21.50
2006,06,25,08,23,21.60
2006,06,25,08,24,21.70
2006,06,25,08,25,21.80
2006,06,25,08,26,21.90
2006,06,25,08,27,22.00
2006,06,25,08,28,22.00
2006,06,25,08,29,22.10
2006,06,25,08,30,22.10
2006,06,25,08,31,22.20
2006,06,25,08,32,22.20
2006,06,25,08,33,22.30
2006,06,25,08,34,22.40
2006,06,25,08,35,22.40
2006,06,25,08,36,22.40
2006,06,25,08,37,22.60
2006,06,25,08,38,22.70
2006,06,25,08,39,22.80
2006,06,25,08,40,22.90
2006,06,25,08,41,22.90
2006,06,25,08,42,22.90
2006,06,25,08,43,23.00
2006,06,25,08,44,23.10
2006,06,25,08,45,23.10
2006,06,25,08,46,23.30
2006,06,25,08,47,23.30
2006,06,25,08,48,23.40
2006,06,25,08,49,23.50
2006,06,25,08,50,23.60
2006,06,25,08,51,23.70
2006,06,25,08,52,23.70
2006,06,25,08,53,23.70
2006,06,25,08,54,23.70
2006,06,25,08,55,23.70
2006,06,25,08,56,23.70
2006,06,25,08,57,23.70
2006,06,25,08,58,23.70
2006,06,25,08,59,23.70
2006,06,25,09,00,23.70
2006,06,25,09,01,23.70
2006,06,25,09,02,23.60
2006,06,25,09,03,23.60
2006,06,25,09,04,23.60
2006,06,25,09,05,23.70
2006,06,25,09,06,23.70
2006,06,25,09,07,23.70
2006,06,25,09,08,23.70
2006,06,25,09,09,23.80
2006,06,25,09,10,23.80
2006,06,25,09,11,23.90
2006,06,25,09,12,24.00
2006,06,25,09,13,24.10
2006,06,25,09,14,24.20
2006,06,25,09,15,24.30
2006,06,25,09,16,24.30
2006,06,25,09,17,24.30
2006,06,25,09,18,24.30
2006,06,25,09,19,24.40
2006,06,25,09,20,24.40
2006,06,25,09,21,24.50
2006,06,25,09,22,24.60
2006,06,25,09,23,24.70
2006,06,25,09,24,24.80
2006,06,25,09,25,24.80
2006,06,25,09,26,24.90
2006,06,25,09,27,24.90
2006,06,25,09,28,24.90
2006,06,25,09,29,24.80
2006,06,25,09,30,24.70
2006,06,25,09,31,24.50
2006,06,25,09,32,24.40
2006,06,25,09,33,24.30
2006,06,25,09,34,24.30
2006,06,25,09,35,24.30
2006,06,25,09,36,24.40
2006,06,25,09,37,24.50
2006,06,25,09,38,24.50
2006,06,25,09,39,24.50
2006,06,25,09,40,24.50
2006,06,25,09,41,24.60
2006,06,25,09,42,24.70
2006,06,25,09,43,24.80
2006,06,25,09,44,24.90
2006,06,25,09,45,25.00
2006,06,25,09,46,25.00
2006,06,25,09,47,25.10
2006,06,25,09,48,25.20
2006,06,25,09,49,25.30
2006,06,25,09,50,25.40
2006,06,25,09,51,25.40
2006,06,25,09,52,25.50
2006,06,25,09,53,25.40
2006,06,25,09,54,25.40
2006,06,25,09,55,25.30
2006,06,25,09,56,25.30
2006,06,25,09,57,25.30
2006,06,25,09,58,25.20
2006,06,25,09,59,25.10
2006,06,25,10,00,25.00
2006,06,25,10,01,24.90
2006,06,25,10,02,24.90
2006,06,25,10,03,25.00
2006,06,25,10,04,25.10
2006,06,25,10,05,25.20
2006,06,25,10,06,25.20
2006,06,25,10,07,25.20
2006,06,25,10,08,25.20
2006,06,25,10,09,24.90
2006,06,25,10,10,24.70
2006,06,25,10,11,24.50
2006,06,25,10,12,24.40
2006,06,25,10,13,24.30
2006,06,25,10,14,24.30
2006,06,25,10,15,24.40
2006,06,25,10,16,24.50
2006,06,25,10,17,24.60
2006,06,25,10,18,24.80
2006,06,25,10,19,24.90
2006,06,25,10,20,25.00
2006,06,25,10,21,25.20
2006,06,25,10,22,25.30
2006,06,25,10,23,25.40
2006,06,25,10,24,25.40
2006,06,25,10,25,25.50
2006,06,25,10,26,25.60
2006,06,25,10,27,25.70
2006,06,25,10,28,25.60
2006,06,25,10,29,25.60
2006,06,25,10,30,25.60
2006,06,25,10,31,25.70
2006,06,25,10,32,25.60
2006,06,25,10,33,25.60
2006,06,25,10,34,25.50
2006,06,25,10,35,25.50
2006,06,25,10,36,25.50
2006,06,25,10,37,25.40
2006,06,25,10,38,25.40
2006,06,25,10,39,25.40
2006,06,25,10,40,25.50
2006,06,25,10,41,25.50
2006,06,25,10,42,25.60
2006,06,25,10,43,25.60
2006,06,25,10,44,25.70
2006,06,25,10,45,25.80
2006,06,25,10,46,25.90
2006,06,25,10,47,25.90
2006,06,25,10,48,26.00
2006,06,25,10,49,26.10
2006,06,25,10,50,26.20
2006,06,25,10,51,26.30
2006,06,25,10,52,26.40
2006,06,25,10,53,26.50
2006,06,25,10,54,26.60
2006,06,25,10,55,26.60
2006,06,25,10,56,26.70
2006,06,25,10,57,26.60
2006,06,25,10,58,26.60
2006,06,25,10,59,26.60
2006,06,25,11,00,26.60
2006,06,25,11,01,26.60
2006,06,25,11,02,26.30
2006,06,25,11,03,26.10
2006,06,25,11,04,25.80
2006,06,25,11,05,25.50
2006,06,25,11,06,25.40
2006,06,25,11,07,25.30
2006,06,25,11,08,25.20
2006,06,25,11,09,25.00
2006,06,25,11,10,24.90
2006,06,25,11,11,24.90
2006,06,25,11,12,24.80
2006,06,25,11,13,24.90
2006,06,25,11,14,24.90
2006,06,25,11,15,24.90
2006,06,25,11,16,24.90
2006,06,25,11,17,25.00
2006,06,25,11,18,25.00
2006,06,25,11,19,25.00
2006,06,25,11,20,24.90
2006,06,25,11,21,24.70
2006,06,25,11,22,24.50
2006,06,25,11,23,24.20
2006,06,25,11,24,24.10
2006,06,25,11,25,24.00
2006,06,25,11,26,23.90
2006,06,25,11,27,23.90
2006,06,25,11,28,23.90
2006,06,25,11,29,24.00
2006,06,25,11,30,24.10
2006,06,25,11,31,24.20
2006,06,25,11,32,24.30
2006,06,25,11,33,24.20
2006,06,25,11,34,24.10
2006,06,25,11,35,24.10
2006,06,25,11,36,24.00
2006,06,25,11,37,23.90
2006,06,25,11,38,23.90
2006,06,25,11,39,23.80
2006,06,25,11,40,23.70
2006,06,25,11,41,23.70
2006,06,25,11,42,23.70
2006,06,25,11,43,23.70
2006,06,25,11,44,23.80
2006,06,25,11,45,23.90
2006,06,25,11,46,23.90
2006,06,25,11,47,24.00
2006,06,25,11,48,24.20
2006,06,25,11,49,24.40
2006,06,25,11,50,24.50
2006,06,25,11,51,24.70
2006,06,25,11,52,24.70
2006,06,25,11,53,24.70
2006,06,25,11,54,24.70
2006,06,25,11,55,24.80
2006,06,25,11,56,24.90
2006,06,25,11,57,24.90
2006,06,25,11,58,24.80
2006,06,25,11,59,24.80
2006,06,25,12,00,24.70
2006,06,25,12,01,24.80
2006,06,25,12,02,24.90
2006,06,25,12,03,25.00
2006,06,25,12,04,25.00
2006,06,25,12,05,25.10
2006,06,25,12,06,25.10
2006,06,25,12,07,25.30
2006,06,25,12,08,25.30
2006,06,25,12,09,25.40
2006,06,25,12,10,25.50
2006,06,25,12,11,25.60
2006,06,25,12,12,25.70
2006,06,25,12,13,25.80
2006,06,25,12,14,25.90
2006,06,25,12,15,25.90
2006,06,25,12,16,26.00
2006,06,25,12,17,25.90
2006,06,25,12,18,25.80
2006,06,25,12,19,25.80
2006,06,25,12,20,25.90
2006,06,25,12,21,26.00
2006,06,25,12,22,26.10
2006,06,25,12,23,26.20
2006,06,25,12,24,26.20
2006,06,25,12,25,26.20
2006,06,25,12,26,26.30
2006,06,25,12,27,26.30
2006,06,25,12,28,26.20
2006,06,25,12,29,26.20
2006,06,25,12,30,26.30
2006,06,25,12,31,26.30
2006,06,25,12,32,26.30
2006,06,25,12,33,26.20
2006,06,25,12,34,26.20
2006,06,25,12,35,26.20
2006,06,25,12,36,26.10
2006,06,25,12,37,26.10
2006,06,25,12,38,26.20
2006,06,25,12,39,26.40
2006,06,25,12,40,26.50
2006,06,25,12,41,26.60
2006,06,25,12,42,26.70
2006,06,25,12,43,26.80
2006,06,25,12,44,26.90
2006,06,25,12,45,27.10
2006,06,25,12,46,27.00
2006,06,25,12,47,26.80
2006,06,25,12,48,26.80
2006,06,25,12,49,26.70
2006,06,25,12,50,26.70
2006,06,25,12,51,26.70
2006,06,25,12,52,26.70
2006,06,25,12,53,26.70
2006,06,25,12,54,26.70
2006,06,25,12,55,26.70
2006,06,25,12,56,26.60
2006,06,25,12,57,26.60
2006,06,25,12,58,26.60
2006,06,25,12,59,26.40
2006,06,25,13,00,26.20
2006,06,25,13,01,25.90
2006,06,25,13,02,25.60
2006,06,25,13,03,25.50
2006,06,25,13,04,25.50
2006,06,25,13,05,25.60
2006,06,25,13,06,25.70
2006,06,25,13,07,25.90
2006,06,25,13,08,26.00
2006,06,25,13,09,26.20
2006,06,25,13,10,26.30
2006,06,25,13,11,26.30
2006,06,25,13,12,26.20
2006,06,25,13,13,26.20
2006,06,25,13,14,26.20
2006,06,25,13,15,26.10
2006,06,25,13,16,26.00
2006,06,25,13,17,26.00
2006,06,25,13,18,26.20
2006,06,25,13,19,26.10
2006,06,25,13,20,26.00
2006,06,25,13,21,25.90
2006,06,25,13,22,25.80
2006,06,25,13,23,25.70
2006,06,25,13,24,25.80
2006,06,25,13,25,25.90
2006,06,25,13,26,25.90
2006,06,25,13,27,25.90
2006,06,25,13,28,25.80
2006,06,25,13,29,25.90
2006,06,25,13,30,25.90
2006,06,25,13,31,25.90
2006,06,25,13,32,25.90
2006,06,25,13,33,26.00
2006,06,25,13,34,26.10
2006,06,25,13,35,26.10
2006,06,25,13,36,26.20
2006,06,25,13,37,26.20
2006,06,25,13,38,26.30
2006,06,25,13,39,26.30
2006,06,25,13,40,26.30
2006,06,25,13,41,26.30
2006,06,25,13,42,26.30
2006,06,25,13,43,26.20
2006,06,25,13,44,26.10
2006,06,25,13,45,26.10
2006,06,25,13,46,26.00
2006,06,25,13,47,25.80
2006,06,25,13,48,25.70
2006,06,25,13,49,25.60
2006,06,25,13,50,25.70
2006,06,25,13,51,25.80
2006,06,25,13,52,25.90
2006,06,25,13,53,26.10
2006,06,25,13,54,26.20
2006,06,25,13,55,26.40
2006,06,25,13,56,26.50
2006,06,25,13,57,26.60
2006,06,25,13,58,26.70
2006,06,25,13,59,26.70
2006,06,25,14,00,26.60
2006,06,25,14,01,26.40
2006,06,25,14,02,26.20
2006,06,25,14,03,26.20
2006,06,25,14,04,26.30
2006,06,25,14,05,26.30
2006,06,25,14,06,26.40
2006,06,25,14,07,26.30
2006,06,25,14,08,26.10
2006,06,25,14,09,25.80
2006,06,25,14,10,25.50
2006,06,25,14,11,25.40
2006,06,25,14,12,25.20
2006,06,25,14,13,25.10
2006,06,25,14,14,25.20
2006,06,25,14,15,25.20
2006,06,25,14,16,25.20
2006,06,25,14,17,25.30
2006,06,25,14,18,25.20
2006,06,25,14,19,25.20
2006,06,25,14,20,24.90
2006,06,25,14,21,24.70
2006,06,25,14,22,24.50
2006,06,25,14,23,24.60
2006,06,25,14,24,24.70
2006,06,25,14,25,24.80
2006,06,25,14,26,24.80
2006,06,25,14,27,24.80
2006,06,25,14,28,24.80
2006,06,25,14,29,24.70
2006,06,25,14,30,24.60
2006,06,25,14,31,24.50
2006,06,25,14,32,24.50
2006,06,25,14,33,24.50
2006,06,25,14,34,24.50
2006,06,25,14,35,24.50
2006,06,25,14,36,24.50
2006,06,25,14,37,24.40
2006,06,25,14,38,24.40
2006,06,25,14,39,24.40
2006,06,25,14,40,24.50
2006,06,25,14,41,24.80
2006,06,25,14,42,25.00
2006,06,25,14,43,25.10
2006,06,25,14,44,25.10
2006,06,25,14,45,25.00
2006,06,25,14,46,24.90
2006,06,25,14,47,24.80
2006,06,25,14,48,24.70
2006,06,25,14,49,24.70
2006,06,25,14,50,24.70
2006,06,25,14,51,24.70
2006,06,25,14,52,24.60
2006,06,25,14,53,24.60
2006,06,25,14,54,24.60
2006,06,25,14,55,24.60
2006,06,25,14,56,24.60
2006,06,25,14,57,24.60
2006,06,25,14,58,24.70
2006,06,25,14,59,24.70
2006,06,25,15,00,24.80
2006,06,25,15,01,24.90
2006,06,25,15,02,24.90
2006,06,25,15,03,25.00
2006,06,25,15,04,25.10
2006,06,25,15,05,25.30
2006,06,25,15,06,25.40
2006,06,25,15,07,25.30
2006,06,25,15,08,25.20
2006,06,25,15,09,25.10
2006,06,25,15,10,25.00
2006,06,25,15,11,24.90
2006,06,25,15,12,24.90
2006,06,25,15,13,25.00
2006,06,25,15,14,25.10
2006,06,25,15,15,25.20
2006,06,25,15,16,25.30
2006,06,25,15,17,25.40
2006,06,25,15,18,25.50
2006,06,25,15,19,25.60
2006,06,25,15,20,25.60
2006,06,25,15,21,25.80
2006,06,25,15,22,25.80
2006,06,25,15,23,25.90
2006,06,25,15,24,25.80
2006,06,25,15,25,25.80
2006,06,25,15,26,25.80
2006,06,25,15,27,25.80
2006,06,25,15,28,25.80
2006,06,25,15,29,26.00
2006,06,25,15,30,26.10
2006,06,25,15,31,26.30
2006,06,25,15,32,26.30
2006,06,25,15,33,26.20
2006,06,25,15,34,26.20
2006,06,25,15,35,26.20
2006,06,25,15,36,26.10
2006,06,25,15,37,26.00
2006,06,25,15,38,26.00
2006,06,25,15,39,25.90
2006,06,25,15,40,26.00
2006,06,25,15,41,26.10
2006,06,25,15,42,26.20
2006,06,25,15,43,26.20
2006,06,25,15,44,26.30
2006,06,25,15,45,26.30
2006,06,25,15,46,26.30
2006,06,25,15,47,26.30
2006,06,25,15,48,26.40
2006,06,25,15,49,26.30
2006,06,25,15,50,26.30
2006,06,25,15,51,26.30
2006,06,25,15,52,26.20
2006,06,25,15,53,26.10
2006,06,25,15,54,26.00
2006,06,25,15,55,25.80
2006,06,25,15,56,25.60
2006,06,25,15,57,25.30
2006,06,25,15,58,25.00
2006,06,25,15,59,24.70
2006,06,25,16,00,24.60
2006,06,25,16,01,24.50
2006,06,25,16,02,24.50
2006,06,25,16,03,24.40
2006,06,25,16,04,24.40
2006,06,25,16,05,24.40
2006,06,25,16,06,24.40
2006,06,25,16,07,24.40
2006,06,25,16,08,24.40
2006,06,25,16,09,24.40
2006,06,25,16,10,24.40
2006,06,25,16,11,24.30
2006,06,25,16,12,24.30
2006,06,25,16,13,24.20
2006,06,25,16,14,24.20
2006,06,25,16,15,24.10
2006,06,25,16,16,24.00
2006,06,25,16,17,23.90
2006,06,25,16,18,23.80
2006,06,25,16,19,23.80
2006,06,25,16,20,23.90
2006,06,25,16,21,24.00
2006,06,25,16,22,24.10
2006,06,25,16,23,24.30
2006,06,25,16,24,24.40
2006,06,25,16,25,24.40
2006,06,25,16,26,24.30
2006,06,25,16,27,24.20
2006,06,25,16,28,24.20
2006,06,25,16,29,24.20
2006,06,25,16,30,24.30
2006,06,25,16,31,24.30
2006,06,25,16,32,24.40
2006,06,25,16,33,24.50
2006,06,25,16,34,24.50
2006,06,25,16,35,24.50
2006,06,25,16,36,24.40
2006,06,25,16,37,24.50
2006,06,25,16,38,24.40
2006,06,25,16,39,24.40
2006,06,25,16,40,24.40
2006,06,25,16,41,24.50
2006,06,25,16,42,24.70
2006,06,25,16,43,24.80
2006,06,25,16,44,24.90
2006,06,25,16,45,25.00
2006,06,25,16,46,25.10
2006,06,25,16,47,25.20
2006,06,25,16,48,25.30
2006,06,25,16,49,25.40
2006,06,25,16,50,25.40
2006,06,25,16,51,25.40
2006,06,25,16,52,25.40
2006,06,25,16,53,25.40
2006,06,25,16,54,25.40
2006,06,25,16,55,25.30
2006,06,25,16,56,25.30
2006,06,25,16,57,25.30
2006,06,25,16,58,25.20
2006,06,25,16,59,25.10
2006,06,25,17,00,25.10
2006,06,25,17,01,25.20
2006,06,25,17,02,25.20
2006,06,25,17,03,25.20
2006,06,25,17,04,25.20
2006,06,25,17,05,25.30
2006,06,25,17,06,25.40
2006,06,25,17,07,25.60
2006,06,25,17,08,25.60
2006,06,25,17,09,25.70
2006,06,25,17,10,25.80
2006,06,25,17,11,25.80
2006,06,25,17,12,25.80
2006,06,25,17,13,25.70
2006,06,25,17,14,25.60
2006,06,25,17,15,25.60
2006,06,25,17,16,25.50
2006,06,25,17,17,25.50
2006,06,25,17,18,25.60
2006,06,25,17,19,25.50